Weather in Verkhnii Tokmak

Ukraine / Zaporizhia Region     47°12′02″N   36°22′20″E
temp.,
°C
wind,
m/s
gust,
m/s
humid.,
%
clouds,
%
prec.,
mm/h
press.,
hPa
HPBL,
m
5 march, fri
fri523:00+3sw8158622 0.0 1014541
02:00+2sw7149123 0.0 1014520
05:00+2sw7149480 0.0 1013465
08:00+4sw6109391 0.0 1013459
11:00+6sw5886100 0.0 1013592
14:00+7ssw3684100 0.0 1013495
17:00+6s3682100 0.0 1012176
20:00+5sse3487100 0.0 101384
6 march, sat
sat623:00+4ssw4788100 0.0 1011136
02:00+3sw4995100 0.0 1011227
05:00+3sw4995100 0.0 1011259
08:00+3nw7992100 0.0 1013480
11:00+2nnw81176100 0.0 1016949
14:00+2nnw81158100 0.1 10181332
17:000nnw8114993 0.0 10211183
20:00−2nnw5105952 0.0 1024932
7 march, sun
sun723:00−2nw48640 0.0 1026754
02:00−3wnw59610 0.0 1026493
05:00−3w49670 0.0 1026367
08:00−1w57590 0.0 1026537
11:00+2w710430 0.0 10251531
14:00+3wsw811420 0.0 10221517
17:00+1wsw6114712 0.0 1020569
20:00−1wsw513577 0.0 1020435
8 march, mon
mon823:00−1wsw7146616 0.0 1019498
02:00−1wsw715778 0.0 1018553
05:00−1wsw7148133 0.0 1016397
08:00+1wsw8137460 0.0 1016676
11:00+6wsw9125249 0.0 10161684
14:00+7wsw8114768 0.0 10151915
17:00+5w485567 0.0 1015274
20:00+2w116984 0.0 101526
9 march, tue
tue923:00+1wsw2378100 0.0 101559
02:000sw238578 0.0 101446
05:00−1sw35849 0.0 1014124
08:00+1w577436 0.0 1015405
11:00+1nw579299 0.6 1016439
14:00+3nw465299 0.8 10161533
17:00+1nnw365787 0.0 1017258
20:00−1nne357287 0.0 1019151